LUSAT-OSCAR-74

operational
NORAD ID: 39440 Int'l Des: 2013-066 Owner: MINCYT Country: AR
LEOCIRCULARRETROGRADESSO

关于 LUSAT-OSCAR-74

正在加载描述...

实时位置

正在加载3D地球...

即将过境

高度历史

Altitude vs Time

uPlot chart will show altitude changes over time

两行轨道根数

1 39440U 13066AA 26062.33034220 .00007689 00000-0 72266-3 0 9995
2 39440 97.8808 10.9934 0059407 20.0378 340.3154 14.92855210661193
Epoch: Mar 3, 2026 • Age: 30 hours

当前状态

高度 609.2 km
速度 7.56 km/s
星下点 -65.69°S, 135.36°E
发射日期 Nov 21, 2013
运行时间 12.2 years
类型 other

技术详情

分类 Payload
质量 3.00 kg
干质量 3.00 kg
总质量 3.00 kg
长度 0.20 m
直径 0.10 m
跨度 0.20 m
形状 Box
制造商 INVAP
平台类型 Cubesat 2U
阶段状态 In Orbit
所有者/国家 MINCYT/AR

大型星座

Loading constellations...